Find AAU-Cubesat

NORAD ID: 27846 Int'l Des: 2003-031 Owner: AAU Country: DK operational
LEOCIRCULARRETROGRADESSO

現在のビュー

3D地球を読み込み中...

AAU-Cubesatについて

説明を読み込み中...

次回通過

Passes for default location (London). Set your location on the main map for personalized predictions.

高度履歴

Loading altitude history...

軌道要素

1 27846U 03031G 26146.22418309 .00000226 00000-0 11755-3 0 9994
2 27846 98.6849 154.9755 0008376 220.2941 139.7618 14.23949108188567
Epoch: May 26, 2026 • Age: 14 hours

現在のステータス

高度 829.5 km
速度 7.44 km/s
衛星直下点 74.49°N, 50.52°W
打ち上げ日 Jun 30, 2003
運用期間 22.9 years
タイプ other

技術仕様

分類 Payload
質量 1.00 kg
乾燥質量 1.00 kg
総質量 1.00 kg
長さ 0.10 m
直径 0.10 m
スパン 0.10 m
形状 Box
製造者 AAU
バスタイプ Cubesat 1U
フェーズステータス In Orbit
所有者/国 AAU/DK

Most Searched